Find Starlink 2612

NORAD ID: 48379 Int'l Des: 2021-038 Owner: SPXS Country: US Constellation: starlink operational
LEOCIRCULAR

リアルタイム位置

3D地球を読み込み中...

Starlink 2612について

説明を読み込み中...

次回通過

Passes for default location (London). Set your location on the main map for personalized predictions.

高度履歴

Loading altitude history...

軌道要素

1 48379U 21038AC 26121.35647691 .00004778 00000-0 16557-3 0 9991
2 48379 53.1575 100.9010 0001009 78.3652 281.7462 15.31713391275324
Epoch: May 1, 2026 • Age: 11 hours

現在のステータス

高度 471.3 km
速度 7.63 km/s
衛星直下点 25.75°N, 34.83°W
打ち上げ日 May 4, 2021
運用期間 4.9 years
タイプ internet

技術仕様

分類 Payload
質量 260.00 kg
乾燥質量 248.00 kg
総質量 260.00 kg
長さ 0.20 m
直径 2.80 m
スパン 9.00 m
形状 Box + pan
製造者 SPXS
バスタイプ Starlink
フェーズステータス In Orbit
所有者/国 SPXS/US

Most Searched